Location: Dalton
(34.7700°N, 84.9700°W)
Time: 11:01:48
(UTC-05:00)

Tiangong 1 - Visible Passes

Search period start: 23 January 2018 00:00
Search period end: 02 February 2018 00:00
Orbit: 261 x 286 km, 42.8° (Epoch: 23 January)

Date Brightness Start Highest point End Pass type
(mag) Time Alt. Az. Time Alt. Az. Time Alt. Az.
23 Jan 1.4 19:29:06 10° WNW 19:31:09 46° WSW 19:31:09 46° WSW visible
24 Jan 2.4 19:28:18 10° W 19:30:24 25° SW 19:30:58 22° S visible
25 Jan 3.6 19:27:53 10° WSW 19:29:05 13° SW 19:30:17 10° S visible
